EW3182 Weather Reports


Display with metric or nautical units.
time (UTC)temp
F
wind
direction
speed
MPH
gust
MPH
rain 1hr
in
rain 24hr
in
rain mn
in
humidity
%
barometer
mb
20260906230005 97 114 0.0 3.0 0.00 0.00 0.00 40 1008.6
20260906224501 97 193 0.0 3.0 0.00 0.00 0.00 39 1008.6
20260906223100 97 225 1.0 9.0 0.00 0.00 0.00 40 1008.6
20260906221559 97 102 0.0 4.0 0.00 0.00 0.00 39 1008.7
20260906220100 97 71 1.0 6.0 0.00 0.00 0.00 40 1008.8
20260906214555 99 102 1.0 5.0 0.00 0.00 0.00 38 1008.8
20260906213055 98 117 1.0 5.0 0.00 0.00 0.00 40 1009.1
20260906211554 99 74 0.0 4.0 0.00 0.00 0.00 39 1009.3
20260906210054 99 105 2.0 11.0 0.00 0.00 0.00 40 1009.6
20260906204548 99 111 0.0 4.0 0.00 0.00 0.00 39 1009.8
20260906203047 100 97 0.0 5.0 0.00 0.00 0.00 39 1009.9
20260906201548 99 291 0.0 7.0 0.00 0.00 0.00 40 1010.0
20260906200044 99 101 1.0 6.0 0.00 0.00 0.00 39 1010.2
20260906194542 99 130 1.0 6.0 0.00 0.00 0.00 40 1010.3
20260906193041 99 155 0.0 6.0 0.00 0.00 0.00 39 1010.5
20260906191542 98 150 1.0 6.0 0.00 0.00 0.00 41 1010.7
20260906190037 97 163 0.0 5.0 0.00 0.00 0.00 45 1010.8
20260906184535 97 146 0.0 4.0 0.00 0.00 0.00 45 1010.8
20260906183044 97 139 0.0 6.0 0.00 0.00 0.00 44 1011.0
20260906181533 98 208 1.0 5.0 0.00 0.00 0.00 45 1011.3
20260906180031 97 248 0.0 4.0 0.00 0.00 0.00 45 1011.5
20260906174528 97 113 0.0 4.0 0.00 0.00 0.00 47 1011.9
20260906173025 96 271 1.0 5.0 0.00 0.00 0.00 48 1012.1
20260906171521 95 174 1.0 7.0 0.00 0.00 0.00 47 1012.3
20260906170029 95 246 0.0 7.0 0.00 0.00 0.00 49 1012.5
20260906164516 94 148 0.0 4.0 0.00 0.00 0.00 52 1012.6
20260906163015 93 294 0.0 3.0 0.00 0.00 0.00 53 1012.6
20260906161520 93 148 0.0 4.0 0.00 0.00 0.00 56 1012.6
20260906160011 92 266 0.0 3.0 0.00 0.00 0.00 58 1012.6
20260906154512 91 257 1.0 3.0 0.00 0.00 0.00 60 1012.6
20260906153005 90 294 0.0 2.0 0.00 0.00 0.00 61 1012.5
20260906151503 90 102 0.0 1.0 0.00 0.00 0.00 63 1012.3
20260906150105 89 156 0.0 2.0 0.00 0.00 0.00 65 1012.3
20260906144558 88 163 0.0 1.0 0.00 0.00 0.00 65 1012.2
20260906143056 88 184 0.0 1.0 0.00 0.00 0.00 65 1012.3
20260906141551 87 99 0.0 2.0 0.00 0.00 0.00 68 1012.2
20260906140051 86 163 0.0 1.0 0.00 0.00 0.00 68 1012.3
20260906134556 86 132 0.0 1.0 0.00 0.00 0.00 70 1012.2
20260906133107 84 150 0.0 1.0 0.00 0.00 0.00 73 1012.2
20260906131542 82 259 0.0 1.0 0.00 0.00 0.00 78 1012.3
20260906130042 79 224 0.0 0.0 0.00 0.00 0.00 79 1012.2
20260906124537 0 0.0 0.0 0.00 0.00 0.00 1012.1
20260906123032 0 0.0 0.0 0.00 0.00 0.00 1012.0
20260906121529 0 0.0 0.0 0.00 0.00 0.00 1011.7
20260906120024 0 0.0 0.0 0.00 0.00 0.00 1011.7
20260906114520 0 0.0 0.0 0.00 0.00 0.00 1011.4
20260906113015 0 0.0 0.0 0.00 0.00 0.00 1011.4
20260906111509 0 0.0 0.0 0.00 0.00 0.00 1011.2
20260906110007 0 0.0 0.0 0.00 0.00 0.00 1011.2
20260906104500 0 0.0 0.0 0.00 0.00 0.00 1011.1
20260906103057 0 0.0 0.0 0.00 0.00 0.00 1011.2
20260906101553 0 0.0 0.0 0.00 0.00 0.00 1010.9
20260906100048 0 0.0 0.0 0.00 0.00 0.00 1010.8
20260906094543 0 0.0 0.0 0.00 0.00 0.00 1010.6
20260906093040 0 0.0 0.0 0.00 0.00 0.00 1010.4
20260906091536 0 0.0 0.0 0.00 0.00 0.00 1010.4
20260906090031 0 0.0 0.0 0.00 0.00 0.00 1010.3
20260906084527 80 228 0.0 1.0 0.00 0.00 0.00 75 1010.4
20260906083025 81 231 0.0 1.0 0.00 0.00 0.00 75 1010.3
20260906081523 81 241 0.0 1.0 0.00 0.00 0.00 75 1010.3
20260906080025 82 278 0.0 1.0 0.00 0.00 0.00 74 1010.3
20260906074520 82 215 0.0 2.0 0.00 0.00 0.00 73 1010.4
20260906073022 82 205 0.0 3.0 0.00 0.00 0.00 73 1010.6
20260906071518 83 226 0.0 4.0 0.00 0.00 0.00 73 1010.5
20260906070017 83 204 0.0 1.0 0.00 0.00 0.00 73 1010.6
20260906064516 83 301 0.0 1.0 0.00 0.00 0.00 73 1010.7
20260906063015 82 249 0.0 2.0 0.00 0.00 0.00 73 1010.6
20260906061514 82 278 0.0 0.0 0.00 0.00 0.00 74 1010.6
20260906060012 82 278 0.0 0.0 0.00 0.00 0.00 72 1010.7
20260906054511 83 278 0.0 0.0 0.00 0.00 0.00 71 1010.7
20260906053006 83 228 0.0 0.0 0.00 0.00 0.00 69 1010.6
20260906051504 84 227 0.0 0.0 0.00 0.00 0.00 68 1010.7
20260906050005 84 225 0.0 0.0 0.00 0.00 0.00 67 1010.7
20260906044600 85 255 0.0 0.0 0.00 0.00 0.00 66 1010.8
20260906043102 85 253 0.0 0.0 0.00 0.00 0.00 66 1010.7
20260906041600 86 256 0.0 1.0 0.00 0.00 0.00 64 1010.4
20260906040123 86 278 0.0 2.0 0.00 0.00 0.00 64 1010.4
20260906034558 86 288 0.0 0.0 0.00 0.00 0.00 63 1010.6
20260906033108 87 288 0.0 2.0 0.00 0.00 0.00 62 1010.5
20260906031601 87 224 0.0 2.0 0.00 0.00 0.00 60 1010.7
20260906030057 88 264 0.0 3.0 0.00 0.00 0.00 59 1010.7
20260906024610 88 166 0.0 5.0 0.00 0.00 0.00 58 1010.5
20260906023058 88 274 1.0 6.0 0.00 0.00 0.00 58 1010.4
20260906021556 89 298 0.0 3.0 0.00 0.00 0.00 58 1010.0
20260906020057 89 122 1.0 6.0 0.00 0.00 0.00 57 1009.8
20260906014606 90 192 1.0 4.0 0.00 0.00 0.00 56 1009.6
20260906013053 91 225 1.0 9.0 0.00 0.00 0.00 54 1009.2
20260906011557 92 104 2.0 7.0 0.00 0.00 0.00 50 1008.9
20260906010053 94 131 0.0 3.0 0.00 0.00 0.00 44 1008.6
20260906004553 94 107 0.0 2.0 0.00 0.00 0.00 43 1008.6
20260906003051 95 82 0.0 3.0 0.00 0.00 0.00 42 1008.5
20260906001550 95 105 0.0 2.0 0.00 0.00 0.00 41 1008.6
20260906000051 96 81 0.0 2.0 0.00 0.00 0.00 41 1008.4
20260905234606 96 136 0.0 4.0 0.00 0.00 0.00 39 1008.3
20260905233050 96 245 0.0 3.0 0.00 0.00 0.00 39 1008.3
20260905231554 97 162 0.0 3.0 0.00 0.00 0.00 39 1008.4